TimeEDT,TemperatureF,Dew PointF,Humidity,Sea Level PressureIn,VisibilityMPH,Wind Direction,Wind SpeedMPH,Gust SpeedMPH,PrecipitationIn,Events,Conditions,WindDirDegrees,DateUTC
12:15 AM,59.0,59.0,100,30.21,0.2,SE,3.5,-,N/A,,Heavy Drizzle,130,2013-05-20 04:15:00
12:35 AM,59.0,59.0,100,30.21,0.2,Calm,Calm,-,N/A,,Heavy Drizzle,0,2013-05-20 04:35:00
12:55 AM,59.0,59.0,100,30.21,0.2,East,3.5,-,0.01,,Heavy Drizzle,100,2013-05-20 04:55:00
1:15 AM,59.0,59.0,100,30.21,0.2,ENE,3.5,-,0.01,,Heavy Drizzle,70,2013-05-20 05:15:00
1:35 AM,59.0,59.0,100,30.20,0.2,Calm,Calm,-,0.09,Rain,Heavy Rain,0,2013-05-20 05:35:00
1:55 AM,59.0,59.0,100,30.20,0.2,Calm,Calm,-,N/A,Rain,Rain,0,2013-05-20 05:55:00
2:15 AM,59.0,59.0,100,30.20,0.2,Calm,Calm,-,N/A,,Drizzle,0,2013-05-20 06:15:00
2:35 AM,59.0,59.0,100,30.19,0.2,SE,3.5,-,N/A,,Drizzle,140,2013-05-20 06:35:00
2:55 AM,59.0,59.0,100,30.18,0.2,SSE,4.6,-,N/A,,Heavy Drizzle,150,2013-05-20 06:55:00
3:15 AM,59.0,59.0,100,30.19,0.2,SSE,5.8,-,N/A,,Drizzle,160,2013-05-20 07:15:00
3:35 AM,59.0,59.0,100,30.18,0.2,SE,4.6,-,N/A,,Heavy Drizzle,140,2013-05-20 07:35:00
4:15 AM,59.0,59.0,100,30.19,0.8,SW,8.1,-,N/A,,Overcast,230,2013-05-20 08:15:00
4:35 AM,57.2,57.2,100,30.19,10.0,WSW,8.1,-,N/A,,Mostly Cloudy,240,2013-05-20 08:35:00
4:55 AM,57.2,57.2,100,30.19,10.0,SW,8.1,-,N/A,,Scattered Clouds,230,2013-05-20 08:55:00
5:35 AM,57.2,57.2,100,30.20,10.0,SW,8.1,-,N/A,,Mostly Cloudy,230,2013-05-20 09:35:00
5:55 AM,57.2,57.2,100,30.20,7.0,WSW,8.1,-,N/A,,Mostly Cloudy,240,2013-05-20 09:55:00
6:15 AM,57.2,57.2,100,30.20,10.0,SSW,5.8,-,N/A,,Scattered Clouds,200,2013-05-20 10:15:00
6:35 AM,57.2,57.2,100,30.20,10.0,South,4.6,-,N/A,,Clear,190,2013-05-20 10:35:00
6:55 AM,57.2,57.2,100,30.20,10.0,SW,5.8,-,N/A,,Clear,220,2013-05-20 10:55:00
7:15 AM,59.0,59.0,100,30.20,10.0,Calm,Calm,-,N/A,,Clear,0,2013-05-20 11:15:00
7:35 AM,60.8,60.8,100,30.21,10.0,South,3.5,-,N/A,,Clear,190,2013-05-20 11:35:00
8:15 AM,59.0,59.0,100,30.22,1.0,West,4.6,-,N/A,,Overcast,270,2013-05-20 12:15:00
8:35 AM,60.8,60.8,100,30.22,5.0,WSW,4.6,-,N/A,,Mostly Cloudy,240,2013-05-20 12:35:00
8:55 AM,60.8,60.8,100,30.24,5.0,SW,4.6,-,N/A,,Scattered Clouds,220,2013-05-20 12:55:00
9:15 AM,60.8,60.8,100,30.24,10.0,WSW,4.6,-,N/A,,Mostly Cloudy,240,2013-05-20 13:15:00
9:35 AM,60.8,60.8,100,30.24,10.0,WSW,8.1,-,N/A,,Mostly Cloudy,240,2013-05-20 13:35:00
9:55 AM,62.6,62.6,100,30.24,10.0,SW,3.5,-,N/A,,Overcast,230,2013-05-20 13:55:00
10:15 AM,62.6,62.6,100,30.24,10.0,WSW,6.9,-,N/A,,Overcast,250,2013-05-20 14:15:00
10:35 AM,64.4,62.6,94,30.24,10.0,West,4.6,-,N/A,,Overcast,270,2013-05-20 14:35:00
10:55 AM,64.4,62.6,94,30.23,10.0,West,8.1,-,N/A,,Mostly Cloudy,270,2013-05-20 14:55:00
11:35 AM,64.4,62.6,94,30.23,10.0,West,4.6,-,N/A,,Overcast,260,2013-05-20 15:35:00
11:55 AM,64.4,62.6,94,30.23,10.0,WNW,4.6,-,N/A,,Mostly Cloudy,290,2013-05-20 15:55:00
12:15 PM,66.2,62.6,88,30.23,10.0,West,5.8,-,N/A,,Mostly Cloudy,270,2013-05-20 16:15:00
12:35 PM,64.4,62.6,94,30.22,10.0,WNW,6.9,-,N/A,,Mostly Cloudy,290,2013-05-20 16:35:00
12:55 PM,66.2,62.6,88,30.22,10.0,WSW,8.1,-,N/A,,Mostly Cloudy,250,2013-05-20 16:55:00
1:15 PM,66.2,62.6,88,30.22,10.0,WSW,6.9,-,N/A,,Mostly Cloudy,250,2013-05-20 17:15:00
1:35 PM,68.0,62.6,83,30.21,10.0,WSW,3.5,-,N/A,,Scattered Clouds,240,2013-05-20 17:35:00
1:55 PM,69.8,60.8,73,30.21,10.0,West,5.8,-,N/A,,Scattered Clouds,270,2013-05-20 17:55:00
2:15 PM,68.0,62.6,83,30.20,10.0,Calm,Calm,-,N/A,,Mostly Cloudy,0,2013-05-20 18:15:00
2:55 PM,69.8,62.6,78,30.20,10.0,WSW,3.5,-,N/A,,Mostly Cloudy,240,2013-05-20 18:55:00
3:15 PM,69.8,64.4,83,30.19,10.0,SSE,3.5,-,N/A,,Mostly Cloudy,150,2013-05-20 19:15:00
3:35 PM,66.2,64.4,94,30.19,7.0,WSW,3.5,-,N/A,Thunderstorm,Thunderstorm,240,2013-05-20 19:35:00
3:55 PM,64.4,62.6,94,30.19,1.0,West,8.1,-,0.31,Rain-Thunderstorm,Heavy Thunderstorms and Rain,260,2013-05-20 19:55:00
4:15 PM,62.6,62.6,100,30.19,0.2,West,11.5,-,0.50,Rain-Thunderstorm,Light Thunderstorms and Rain,270,2013-05-20 20:15:00
4:35 PM,60.8,60.8,100,30.19,5.0,West,11.5,-,0.50,Thunderstorm,Mostly Cloudy,270,2013-05-20 20:35:00
4:55 PM,62.6,60.8,94,30.17,10.0,West,10.4,-,N/A,Thunderstorm,Thunderstorm,280,2013-05-20 20:55:00
5:15 PM,62.6,60.8,94,30.17,10.0,West,8.1,-,N/A,Thunderstorm,Unknown,280,2013-05-20 21:15:00
5:35 PM,62.6,60.8,94,30.18,10.0,Calm,Calm,-,N/A,Rain-Thunderstorm,Light Thunderstorms and Rain,0,2013-05-20 21:35:00
5:55 PM,62.6,62.6,100,30.18,10.0,Calm,Calm,-,N/A,Rain-Thunderstorm,Light Thunderstorms and Rain,0,2013-05-20 21:55:00
6:15 PM,64.4,62.6,94,30.18,10.0,Calm,Calm,-,N/A,Thunderstorm,Unknown,0,2013-05-20 22:15:00
6:35 PM,64.4,60.8,88,30.18,10.0,Calm,Calm,-,N/A,,Scattered Clouds,0,2013-05-20 22:35:00
6:55 PM,64.4,62.6,94,30.18,10.0,Calm,Calm,-,N/A,,Clear,0,2013-05-20 22:55:00
7:15 PM,64.4,60.8,88,30.20,10.0,Calm,Calm,-,N/A,,Clear,0,2013-05-20 23:15:00
7:35 PM,62.6,60.8,94,30.20,10.0,Calm,Calm,-,N/A,,Clear,0,2013-05-20 23:35:00
7:55 PM,62.6,60.8,94,30.20,10.0,South,3.5,-,N/A,,Scattered Clouds,170,2013-05-20 23:55:00
8:15 PM,62.6,59.0,88,30.19,10.0,South,4.6,-,N/A,,Scattered Clouds,170,2013-05-21 00:15:00
8:35 PM,62.6,59.0,88,30.18,10.0,SSW,5.8,-,N/A,,Clear,200,2013-05-21 00:35:00
8:55 PM,60.8,57.2,88,30.18,10.0,WSW,8.1,-,N/A,,Clear,240,2013-05-21 00:55:00
9:15 PM,62.6,59.0,88,30.18,10.0,WSW,11.5,-,N/A,,Clear,250,2013-05-21 01:15:00
9:35 PM,62.6,60.8,94,30.18,10.0,WSW,11.5,-,N/A,,Clear,250,2013-05-21 01:35:00
9:55 PM,62.6,60.8,94,30.17,10.0,WSW,11.5,-,N/A,,Clear,250,2013-05-21 01:55:00
10:15 PM,62.6,60.8,94,30.17,10.0,WSW,10.4,-,N/A,,Clear,240,2013-05-21 02:15:00
10:35 PM,60.8,60.8,100,30.18,10.0,East,4.6,-,N/A,,Clear,90,2013-05-21 02:35:00
10:55 PM,60.8,60.8,100,30.18,0.2,East,3.5,-,N/A,Fog,Fog,100,2013-05-21 02:55:00
11:15 PM,60.8,60.8,100,30.17,0.2,South,3.5,-,N/A,Fog,Fog,170,2013-05-21 03:15:00
11:35 PM,60.8,60.8,100,30.18,0.2,SSW,3.5,-,N/A,Fog,Fog,210,2013-05-21 03:35:00
11:55 PM,60.8,60.8,100,30.17,2.5,WSW,4.6,-,N/A,,Overcast,240,2013-05-21 03:55:00